| time (UTC) | temp F | wind direction | speed MPH | gust MPH | rain 1hr in | rain 24hr in | rain mn in | humidity % | barometer mb |
| 20260506134503 | 55 | 347 | 1.0 | 2.0 | 0.00 | 0.00 | 0.00 | 87 | 1020.5 |
| 20260506134000 | 55 | 309 | 3.0 | 3.0 | 0.00 | 0.00 | 0.00 | 87 | 1020.5 |
| 20260506133457 | 55 | 337 | 1.0 | 3.0 | 0.00 | 0.00 | 0.00 | 87 | 1020.5 |
| 20260506132954 | 55 | 327 | 4.0 | 5.0 | 0.00 | 0.00 | 0.00 | 87 | 1020.5 |
| 20260506132451 | 55 | 280 | 4.0 | 6.0 | 0.00 | 0.00 | 0.00 | 87 | 1020.4 |
| 20260506131948 | 55 | 348 | 0.0 | 2.0 | 0.00 | 0.00 | 0.00 | 87 | 1020.5 |
| 20260506131445 | 55 | 283 | 3.0 | 3.0 | 0.00 | 0.00 | 0.00 | 87 | 1020.3 |
| 20260506130942 | 55 | 348 | 0.0 | 2.0 | 0.00 | 0.00 | 0.00 | 87 | 1020.6 |
| 20260506130438 | 55 | 349 | 1.0 | 2.0 | 0.00 | 0.00 | 0.00 | 87 | 1020.3 |
| 20260506125936 | 55 | 344 | 1.0 | 6.0 | 0.00 | 0.00 | 0.00 | 87 | 1020.3 |
| 20260506125434 | 55 | 320 | 1.0 | 3.0 | 0.00 | 0.00 | 0.00 | 87 | 1020.3 |
| 20260506124932 | 55 | 358 | 1.0 | 2.0 | 0.00 | 0.00 | 0.00 | 87 | 1020.4 |
| 20260506124429 | 55 | 310 | 2.0 | 2.0 | 0.00 | 0.00 | 0.00 | 87 | 1020.2 |
| 20260506123927 | 55 | 336 | 1.0 | 2.0 | 0.00 | 0.00 | 0.00 | 87 | 1020.1 |
| 20260506123425 | 55 | 342 | 2.0 | 3.0 | 0.00 | 0.00 | 0.00 | 86 | 1020.3 |
| 20260506122922 | 55 | 275 | 4.0 | 6.0 | 0.00 | 0.00 | 0.00 | 86 | 1020.3 |
| 20260506122419 | 55 | 309 | 3.0 | 6.0 | 0.00 | 0.00 | 0.00 | 86 | 1020.1 |
| 20260506121918 | 55 | 289 | 5.0 | 6.0 | 0.00 | 0.00 | 0.00 | 86 | 1020.2 |
| 20260506121414 | 55 | 318 | 1.0 | 2.0 | 0.00 | 0.00 | 0.00 | 86 | 1020.2 |
| 20260506120911 | 55 | 355 | 1.0 | 2.0 | 0.00 | 0.00 | 0.00 | 86 | 1020.0 |
| 20260506120409 | 55 | 289 | 5.0 | 6.0 | 0.00 | 0.00 | 0.00 | 86 | 1020.1 |
| 20260506115906 | 55 | 284 | 2.0 | 3.0 | 0.00 | 0.00 | 0.00 | 86 | 1020.0 |
| 20260506115404 | 55 | 8 | 1.0 | 2.0 | 0.00 | 0.00 | 0.00 | 86 | 1020.0 |
| 20260506114902 | 55 | 328 | 3.0 | 7.0 | 0.00 | 0.00 | 0.00 | 86 | 1019.9 |
| 20260506114359 | 55 | 338 | 2.0 | 6.0 | 0.00 | 0.00 | 0.00 | 86 | 1020.0 |
| 20260506113858 | 55 | 355 | 3.0 | 3.0 | 0.00 | 0.00 | 0.00 | 86 | 1019.9 |
| 20260506113355 | 55 | 336 | 2.0 | 7.0 | 0.00 | 0.00 | 0.00 | 86 | 1019.9 |
| 20260506112851 | 55 | 318 | 1.0 | 3.0 | 0.00 | 0.00 | 0.00 | 86 | 1019.9 |
| 20260506112348 | 55 | 358 | 1.0 | 6.0 | 0.00 | 0.00 | 0.00 | 86 | 1019.8 |
| 20260506111845 | 55 | 294 | 3.0 | 3.0 | 0.00 | 0.00 | 0.00 | 86 | 1019.7 |
| 20260506111344 | 55 | 306 | 3.0 | 6.0 | 0.00 | 0.00 | 0.00 | 86 | 1019.7 |
| 20260506110841 | 55 | 294 | 4.0 | 7.0 | 0.00 | 0.00 | 0.00 | 86 | 1019.7 |
| 20260506110338 | 55 | 322 | 3.0 | 3.0 | 0.00 | 0.00 | 0.00 | 86 | 1019.5 |
| 20260506105835 | 55 | 313 | 2.0 | 2.0 | 0.00 | 0.00 | 0.00 | 86 | 1019.7 |
| 20260506105331 | 55 | 357 | 1.0 | 2.0 | 0.00 | 0.00 | 0.00 | 86 | 1019.8 |
| 20260506104829 | 55 | 350 | 1.0 | 1.0 | 0.00 | 0.00 | 0.00 | 86 | 1019.5 |
| 20260506104326 | 55 | 354 | 0.0 | 1.0 | 0.00 | 0.00 | 0.00 | 86 | 1019.6 |
| 20260506103824 | 55 | 359 | 0.0 | 1.0 | 0.00 | 0.00 | 0.00 | 86 | 1019.5 |
| 20260506103321 | 55 | 321 | 1.0 | 5.0 | 0.00 | 0.00 | 0.00 | 86 | 1019.7 |
| 20260506102819 | 55 | 299 | 3.0 | 3.0 | 0.00 | 0.00 | 0.00 | 86 | 1019.6 |
| 20260506102316 | 55 | 303 | 3.0 | 3.0 | 0.00 | 0.00 | 0.00 | 86 | 1019.4 |
| 20260506101814 | 55 | 0 | 0.0 | 5.0 | 0.00 | 0.00 | 0.00 | 86 | 1019.6 |
| 20260506101309 | 55 | 0 | 1.0 | 6.0 | 0.00 | 0.00 | 0.00 | 86 | 1019.6 |
| 20260506100808 | 55 | 354 | 2.0 | 2.0 | 0.00 | 0.00 | 0.00 | 86 | 1019.5 |
| 20260506100306 | 55 | 7 | 1.0 | 3.0 | 0.00 | 0.00 | 0.00 | 86 | 1019.4 |
| 20260506095804 | 55 | 343 | 1.0 | 5.0 | 0.00 | 0.00 | 0.00 | 86 | 1019.5 |
| 20260506095300 | 55 | 351 | 1.0 | 3.0 | 0.00 | 0.00 | 0.00 | 86 | 1019.5 |
| 20260506094757 | 55 | 311 | 3.0 | 3.0 | 0.00 | 0.00 | 0.00 | 86 | 1019.5 |
| 20260506094255 | 55 | 340 | 1.0 | 1.0 | 0.00 | 0.00 | 0.00 | 86 | 1019.6 |
| 20260506093754 | 55 | 343 | 1.0 | 1.0 | 0.00 | 0.00 | 0.00 | 86 | 1019.5 |
| 20260506093250 | 55 | 352 | 0.0 | 2.0 | 0.00 | 0.00 | 0.00 | 86 | 1019.6 |
| 20260506092748 | 55 | 357 | 0.0 | 1.0 | 0.00 | 0.00 | 0.00 | 86 | 1019.6 |
| 20260506092246 | 55 | 358 | 0.0 | 0.0 | 0.00 | 0.00 | 0.00 | 86 | 1019.7 |
| 20260506091743 | 55 | 356 | 0.0 | 2.0 | 0.00 | 0.00 | 0.00 | 86 | 1019.5 |
| 20260506091240 | 55 | 354 | 0.0 | 1.0 | 0.00 | 0.00 | 0.00 | 86 | 1019.5 |
| 20260506090738 | 55 | 336 | 1.0 | 2.0 | 0.00 | 0.00 | 0.00 | 86 | 1019.6 |
| 20260506090235 | 55 | 312 | 1.0 | 2.0 | 0.00 | 0.00 | 0.00 | 86 | 1019.3 |
| 20260506085732 | 55 | 309 | 1.0 | 2.0 | 0.00 | 0.00 | 0.00 | 86 | 1019.3 |
| 20260506085228 | 55 | 354 | 0.0 | 5.0 | 0.00 | 0.00 | 0.00 | 86 | 1019.7 |
| 20260506084725 | 55 | 354 | 0.0 | 5.0 | 0.00 | 0.00 | 0.00 | 86 | 1019.7 |
| 20260506084221 | 55 | 316 | 2.0 | 5.0 | 0.00 | 0.00 | 0.00 | 86 | 1019.3 |
| 20260506083718 | 55 | 8 | 1.0 | 3.0 | 0.00 | 0.00 | 0.00 | 86 | 1019.5 |
| 20260506083216 | 55 | 288 | 2.0 | 3.0 | 0.00 | 0.00 | 0.00 | 86 | 1019.6 |
| 20260506082713 | 55 | 292 | 3.0 | 5.0 | 0.00 | 0.00 | 0.00 | 86 | 1019.6 |
| 20260506082208 | 55 | 328 | 0.0 | 1.0 | 0.00 | 0.00 | 0.00 | 86 | 1019.3 |
| 20260506081706 | 55 | 324 | 2.0 | 3.0 | 0.00 | 0.00 | 0.00 | 86 | 1019.6 |
| 20260506081204 | 55 | 339 | 1.0 | 3.0 | 0.00 | 0.00 | 0.00 | 86 | 1019.3 |
| 20260506080701 | 55 | 338 | 1.0 | 3.0 | 0.00 | 0.00 | 0.00 | 86 | 1019.3 |
| 20260506080158 | 55 | 291 | 3.0 | 5.0 | 0.00 | 0.00 | 0.00 | 86 | 1019.4 |
| 20260506073142 | 54 | 300 | 1.0 | 3.0 | 0.00 | 0.00 | 0.00 | 86 | 1019.2 |
| 20260506072638 | 54 | 354 | 2.0 | 6.0 | 0.00 | 0.00 | 0.00 | 86 | 1019.2 |
| 20260506072136 | 54 | 306 | 2.0 | 5.0 | 0.00 | 0.00 | 0.00 | 86 | 1019.2 |
| 20260506071633 | 54 | 297 | 2.0 | 7.0 | 0.00 | 0.00 | 0.00 | 86 | 1019.3 |
| 20260506071131 | 54 | 352 | 1.0 | 3.0 | 0.00 | 0.00 | 0.00 | 86 | 1019.1 |
| 20260506070628 | 54 | 321 | 1.0 | 5.0 | 0.00 | 0.00 | 0.00 | 86 | 1019.2 |
| 20260506070125 | 54 | 285 | 3.0 | 6.0 | 0.00 | 0.06 | 0.06 | 86 | 1019.0 |
| 20260506062103 | 54 | 291 | 3.0 | 3.0 | 0.00 | 0.06 | 0.06 | 86 | 1018.9 |
| 20260506061558 | 54 | 282 | 4.0 | 7.0 | 0.00 | 0.06 | 0.06 | 86 | 1018.9 |
| 20260506061056 | 54 | 271 | 3.0 | 6.0 | 0.00 | 0.06 | 0.06 | 86 | 1018.7 |
| 20260506060554 | 54 | 322 | 3.0 | 7.0 | 0.00 | 0.06 | 0.06 | 86 | 1018.8 |
| 20260506051023 | 55 | 280 | 3.0 | 8.0 | 0.00 | 0.06 | 0.06 | 86 | 1018.5 |
| 20260506050521 | 55 | 310 | 5.0 | 6.0 | 0.00 | 0.06 | 0.06 | 86 | 1018.6 |
| 20260506045011 | 55 | 353 | 2.0 | 5.0 | 0.00 | 0.06 | 0.06 | 86 | 1018.2 |
| 20260506044509 | 55 | 320 | 5.0 | 6.0 | 0.00 | 0.06 | 0.06 | 86 | 1018.3 |
| 20260506044006 | 55 | 305 | 3.0 | 6.0 | 0.00 | 0.06 | 0.06 | 86 | 1018.3 |
| 20260506043503 | 55 | 316 | 3.0 | 5.0 | 0.00 | 0.06 | 0.06 | 86 | 1018.3 |
| 20260506043001 | 55 | 358 | 1.0 | 2.0 | 0.00 | 0.06 | 0.06 | 86 | 1018.2 |
| 20260506042500 | 56 | 323 | 0.0 | 1.0 | 0.00 | 0.06 | 0.06 | 86 | 1018.3 |
| 20260506041957 | 55 | 342 | 3.0 | 3.0 | 0.00 | 0.06 | 0.06 | 86 | 1017.9 |
| 20260506041455 | 55 | 3 | 0.0 | 0.0 | 0.00 | 0.06 | 0.06 | 86 | 1017.9 |
| 20260506040952 | 56 | 3 | 0.0 | 1.0 | 0.00 | 0.06 | 0.06 | 86 | 1017.7 |
| 20260506040450 | 56 | 1 | 0.0 | 0.0 | 0.00 | 0.06 | 0.06 | 86 | 1017.8 |
| 20260506035946 | 56 | 8 | 0.0 | 0.0 | 0.00 | 0.06 | 0.06 | 86 | 1017.5 |
| 20260506035443 | 56 | 261 | 3.0 | 5.0 | 0.00 | 0.06 | 0.06 | 85 | 1017.7 |
| 20260506034939 | 56 | 336 | 4.0 | 6.0 | 0.00 | 0.06 | 0.06 | 85 | 1017.5 |
| 20260506034438 | 57 | 350 | 5.0 | 7.0 | 0.00 | 0.06 | 0.06 | 85 | 1017.2 |
| 20260506033934 | 57 | 287 | 2.0 | 7.0 | 0.00 | 0.06 | 0.06 | 85 | 1017.0 |
| 20260506033432 | 57 | 357 | 0.0 | 3.0 | 0.00 | 0.06 | 0.06 | 85 | 1017.1 |
| 20260506032928 | 57 | 14 | 0.0 | 6.0 | 0.00 | 0.06 | 0.06 | 84 | 1017.0 |
| 20260506032425 | 57 | 292 | 7.0 | 9.0 | 0.00 | 0.06 | 0.06 | 84 | 1016.9 |
| 20260506031921 | 57 | 296 | 6.0 | 7.0 | 0.00 | 0.06 | 0.06 | 84 | 1016.9 |
| 20260506031419 | 58 | 288 | 6.0 | 7.0 | 0.00 | 0.06 | 0.06 | 83 | 1016.9 |
| 20260506030917 | 58 | 348 | 2.0 | 6.0 | 0.00 | 0.06 | 0.06 | 83 | 1016.9 |
| 20260506030415 | 58 | 289 | 2.0 | 3.0 | 0.00 | 0.06 | 0.06 | 83 | 1016.7 |
| 20260506025911 | 58 | 280 | 5.0 | 7.0 | 0.00 | 0.06 | 0.06 | 83 | 1016.6 |
| 20260506025408 | 58 | 285 | 4.0 | 6.0 | 0.00 | 0.06 | 0.06 | 83 | 1016.4 |
| 20260506024905 | 58 | 350 | 0.0 | 3.0 | 0.00 | 0.06 | 0.06 | 83 | 1016.5 |
| 20260506024402 | 58 | 12 | 3.0 | 8.0 | 0.00 | 0.06 | 0.06 | 83 | 1016.5 |
| 20260506023857 | 59 | 326 | 4.0 | 8.0 | 0.00 | 0.06 | 0.06 | 83 | 1016.4 |
| 20260506023355 | 59 | 287 | 3.0 | 3.0 | 0.00 | 0.06 | 0.06 | 83 | 1016.5 |
| 20260506022851 | 59 | 301 | 1.0 | 2.0 | 0.00 | 0.06 | 0.06 | 82 | 1016.6 |
| 20260506022349 | 59 | 312 | 7.0 | 11.0 | 0.00 | 0.06 | 0.06 | 82 | 1016.4 |
| 20260506021847 | 59 | 324 | 2.0 | 8.0 | 0.00 | 0.06 | 0.06 | 82 | 1016.3 |
| 20260506021343 | 60 | 275 | 4.0 | 6.0 | 0.00 | 0.06 | 0.06 | 82 | 1016.2 |
| 20260506020840 | 59 | 262 | 4.0 | 6.0 | 0.00 | 0.06 | 0.06 | 82 | 1016.3 |
| 20260506020338 | 60 | 286 | 1.0 | 5.0 | 0.00 | 0.06 | 0.06 | 82 | 1016.2 |
| 20260506015836 | 60 | 254 | 1.0 | 2.0 | 0.00 | 0.06 | 0.06 | 82 | 1016.2 |
| 20260506015333 | 59 | 265 | 3.0 | 6.0 | 0.00 | 0.06 | 0.06 | 82 | 1015.9 |
| 20260506014829 | 59 | 286 | 7.0 | 11.0 | 0.00 | 0.06 | 0.06 | 82 | 1016.0 |
| 20260506014326 | 60 | 283 | 5.0 | 7.0 | 0.00 | 0.06 | 0.06 | 81 | 1016.0 |
| 20260506013823 | 60 | 307 | 3.0 | 7.0 | 0.00 | 0.06 | 0.06 | 81 | 1016.3 |
| 20260506013320 | 61 | 104 | 4.0 | 9.0 | 0.00 | 0.06 | 0.06 | 80 | 1016.0 |
| 20260506012817 | 60 | 262 | 5.0 | 10.0 | 0.00 | 0.06 | 0.06 | 81 | 1016.1 |
| 20260506012314 | 61 | 247 | 7.0 | 9.0 | 0.00 | 0.06 | 0.06 | 81 | 1016.0 |
| 20260506011811 | 62 | 215 | 6.0 | 9.0 | 0.00 | 0.06 | 0.06 | 80 | 1016.1 |
| 20260506011308 | 62 | 32 | 6.0 | 10.0 | 0.00 | 0.06 | 0.06 | 79 | 1016.0 |
| 20260506010805 | 62 | 4 | 4.0 | 5.0 | 0.00 | 0.06 | 0.06 | 79 | 1016.0 |
| 20260506010303 | 62 | 286 | 11.0 | 14.0 | 0.00 | 0.06 | 0.06 | 79 | 1016.0 |
| 20260506005800 | 63 | 299 | 5.0 | 13.0 | 0.00 | 0.06 | 0.06 | 79 | 1015.9 |
| 20260506005256 | 62 | 321 | 2.0 | 6.0 | 0.00 | 0.06 | 0.06 | 79 | 1015.9 |
| 20260506004752 | 63 | 337 | 3.0 | 8.0 | 0.00 | 0.06 | 0.06 | 78 | 1015.9 |
| 20260506004251 | 63 | 306 | 3.0 | 6.0 | 0.00 | 0.06 | 0.06 | 77 | 1015.9 |
| 20260506003746 | 63 | 302 | 6.0 | 8.0 | 0.00 | 0.06 | 0.06 | 78 | 1015.9 |
| 20260506003243 | 62 | 271 | 1.0 | 8.0 | 0.00 | 0.06 | 0.06 | 79 | 1015.7 |
| 20260506002739 | 62 | 292 | 3.0 | 9.0 | 0.00 | 0.06 | 0.06 | 79 | 1015.7 |
| 20260506002235 | 62 | 276 | 8.0 | 11.0 | 0.00 | 0.06 | 0.06 | 78 | 1015.5 |
| 20260506001731 | 62 | 305 | 1.0 | 8.0 | 0.00 | 0.06 | 0.06 | 79 | 1015.7 |
| 20260506001229 | 62 | 320 | 2.0 | 11.0 | 0.00 | 0.06 | 0.06 | 79 | 1015.5 |
| 20260506000725 | 62 | 267 | 3.0 | 11.0 | 0.00 | 0.06 | 0.06 | 79 | 1015.7 |
| 20260506000223 | 63 | 253 | 3.0 | 14.0 | 0.00 | 0.06 | 0.06 | 79 | 1015.6 |
| 20260505235720 | 64 | 40 | 3.0 | 7.0 | 0.00 | 0.06 | 0.06 | 78 | 1015.6 |
| 20260505235218 | 63 | 254 | 2.0 | 6.0 | 0.00 | 0.06 | 0.06 | 80 | 1015.6 |
| 20260505234714 | 63 | 135 | 3.0 | 8.0 | 0.00 | 0.06 | 0.06 | 79 | 1015.6 |
| 20260505234212 | 62 | 303 | 6.0 | 8.0 | 0.00 | 0.06 | 0.06 | 80 | 1015.5 |
| 20260505233708 | 62 | 225 | 5.0 | 7.0 | 0.00 | 0.06 | 0.06 | 80 | 1015.7 |
| 20260505233206 | 63 | 228 | 2.0 | 6.0 | 0.00 | 0.06 | 0.06 | 79 | 1015.5 |
| 20260505232703 | 63 | 147 | 5.0 | 8.0 | 0.00 | 0.06 | 0.06 | 79 | 1015.5 |
| 20260505232201 | 63 | 291 | 0.0 | 5.0 | 0.00 | 0.06 | 0.06 | 78 | 1015.5 |
| 20260505231657 | 64 | 354 | 0.0 | 5.0 | 0.00 | 0.06 | 0.06 | 78 | 1015.8 |
| 20260505231156 | 64 | 348 | 1.0 | 5.0 | 0.00 | 0.06 | 0.06 | 78 | 1015.5 |
| 20260505230654 | 64 | 323 | 1.0 | 8.0 | 0.00 | 0.06 | 0.06 | 78 | 1015.4 |
| 20260505230150 | 64 | 278 | 2.0 | 6.0 | 0.00 | 0.06 | 0.06 | 78 | 1015.5 |
| 20260505225646 | 63 | 311 | 2.0 | 6.0 | 0.00 | 0.06 | 0.06 | 78 | 1015.6 |
| 20260505225143 | 64 | 34 | 4.0 | 8.0 | 0.00 | 0.06 | 0.06 | 78 | 1015.4 |
| 20260505224639 | 64 | 225 | 1.0 | 7.0 | 0.00 | 0.06 | 0.06 | 78 | 1015.6 |
| 20260505224137 | 64 | 314 | 4.0 | 9.0 | 0.00 | 0.06 | 0.06 | 77 | 1015.4 |
| 20260505223634 | 64 | 289 | 3.0 | 6.0 | 0.00 | 0.06 | 0.06 | 76 | 1015.5 |
| 20260505223130 | 64 | 294 | 5.0 | 8.0 | 0.00 | 0.06 | 0.06 | 76 | 1015.5 |
| 20260505222626 | 65 | 280 | 3.0 | 5.0 | 0.00 | 0.06 | 0.06 | 75 | 1015.6 |
| 20260505222123 | 64 | 288 | 2.0 | 6.0 | 0.00 | 0.06 | 0.06 | 76 | 1015.5 |
| 20260505221620 | 64 | 314 | 2.0 | 8.0 | 0.00 | 0.06 | 0.06 | 77 | 1015.7 |
| 20260505221116 | 64 | 303 | 3.0 | 8.0 | 0.00 | 0.06 | 0.06 | 76 | 1015.5 |
| 20260505220614 | 65 | 285 | 3.0 | 6.0 | 0.00 | 0.06 | 0.06 | 76 | 1015.7 |
| 20260505220112 | 65 | 286 | 1.0 | 3.0 | 0.00 | 0.06 | 0.06 | 75 | 1015.6 |
| 20260505215609 | 65 | 305 | 4.0 | 7.0 | 0.00 | 0.06 | 0.06 | 74 | 1015.8 |
| 20260505215107 | 64 | 312 | 1.0 | 2.0 | 0.00 | 0.06 | 0.06 | 77 | 1015.6 |
| 20260505214605 | 65 | 153 | 0.0 | 2.0 | 0.00 | 0.06 | 0.06 | 75 | 1015.7 |
| 20260505214102 | 65 | 199 | 1.0 | 3.0 | 0.00 | 0.06 | 0.06 | 74 | 1015.7 |
| 20260505213559 | 64 | 352 | 1.0 | 1.0 | 0.00 | 0.06 | 0.06 | 75 | 1015.8 |
| 20260505213056 | 65 | 2 | 0.0 | 2.0 | 0.00 | 0.06 | 0.06 | 74 | 1015.9 |
| 20260505212552 | 65 | 352 | 1.0 | 6.0 | 0.00 | 0.06 | 0.06 | 73 | 1015.8 |
| 20260505212050 | 65 | 338 | 1.0 | 3.0 | 0.00 | 0.06 | 0.06 | 74 | 1015.8 |
| 20260505211546 | 65 | 313 | 2.0 | 3.0 | 0.00 | 0.06 | 0.06 | 73 | 1015.7 |
| 20260505211043 | 66 | 6 | 0.0 | 1.0 | 0.00 | 0.06 | 0.06 | 72 | 1016.2 |
| 20260505210539 | 66 | 27 | 1.0 | 6.0 | 0.00 | 0.06 | 0.06 | 73 | 1015.9 |
| 20260505210037 | 66 | 354 | 2.0 | 3.0 | 0.00 | 0.06 | 0.06 | 72 | 1015.9 |
| 20260505205535 | 65 | 293 | 1.0 | 3.0 | 0.00 | 0.06 | 0.06 | 72 | 1016.0 |
| 20260505205032 | 65 | 217 | 5.0 | 9.0 | 0.00 | 0.06 | 0.06 | 73 | 1016.1 |
| 20260505204529 | 64 | 214 | 2.0 | 5.0 | 0.00 | 0.06 | 0.06 | 76 | 1016.1 |
| 20260505204026 | 64 | 0 | 2.0 | 7.0 | 0.00 | 0.06 | 0.06 | 77 | 1016.2 |
| 20260505203523 | 63 | 35 | 4.0 | 7.0 | 0.00 | 0.06 | 0.06 | 75 | 1016.2 |
| 20260505203020 | 62 | 303 | 1.0 | 7.0 | 0.00 | 0.06 | 0.06 | 77 | 1016.0 |
| 20260505202516 | 63 | 337 | 2.0 | 5.0 | 0.00 | 0.06 | 0.06 | 78 | 1016.0 |
| 20260505202012 | 63 | 295 | 2.0 | 8.0 | 0.00 | 0.06 | 0.06 | 78 | 1016.3 |
| 20260505201510 | 63 | 273 | 1.0 | 6.0 | 0.00 | 0.06 | 0.06 | 78 | 1016.3 |
| 20260505201007 | 62 | 306 | 3.0 | 5.0 | 0.00 | 0.06 | 0.06 | 77 | 1016.1 |
| 20260505200505 | 62 | 261 | 3.0 | 11.0 | 0.00 | 0.06 | 0.06 | 78 | 1016.4 |
| 20260505200000 | 62 | 317 | 3.0 | 9.0 | 0.00 | 0.06 | 0.06 | 78 | 1016.2 |
| 20260505195457 | 62 | 304 | 2.0 | 8.0 | 0.00 | 0.06 | 0.06 | 79 | 1016.3 |
| 20260505194955 | 62 | 284 | 7.0 | 9.0 | 0.00 | 0.06 | 0.06 | 78 | 1016.3 |
| 20260505194452 | 63 | 294 | 5.0 | 6.0 | 0.00 | 0.06 | 0.06 | 78 | 1016.2 |
| 20260505193952 | 63 | 355 | 5.0 | 7.0 | 0.00 | 0.06 | 0.06 | 77 | 1016.4 |
| 20260505193450 | 62 | 40 | 1.0 | 6.0 | 0.00 | 0.06 | 0.06 | 78 | 1016.4 |
| 20260505192947 | 62 | 290 | 3.0 | 8.0 | 0.00 | 0.06 | 0.06 | 79 | 1016.3 |
| 20260505192446 | 61 | 322 | 1.0 | 8.0 | 0.00 | 0.06 | 0.06 | 79 | 1016.3 |
| 20260505191942 | 62 | 271 | 4.0 | 10.0 | 0.00 | 0.06 | 0.06 | 79 | 1016.2 |
| 20260505191441 | 61 | 248 | 5.0 | 7.0 | 0.00 | 0.06 | 0.06 | 80 | 1016.2 |
| 20260505190938 | 61 | 282 | 0.0 | 5.0 | 0.00 | 0.06 | 0.06 | 80 | 1016.5 |
| 20260505190433 | 61 | 301 | 5.0 | 9.0 | 0.00 | 0.06 | 0.06 | 79 | 1016.4 |
| 20260505185928 | 63 | 280 | 7.0 | 9.0 | 0.00 | 0.06 | 0.06 | 78 | 1016.1 |
| 20260505185426 | 63 | 312 | 3.0 | 5.0 | 0.00 | 0.06 | 0.06 | 76 | 1016.0 |
| 20260505184922 | 62 | 316 | 7.0 | 13.0 | 0.00 | 0.06 | 0.06 | 79 | 1016.3 |
| 20260505184419 | 63 | 47 | 4.0 | 8.0 | 0.00 | 0.06 | 0.06 | 78 | 1016.2 |
| 20260505183916 | 64 | 307 | 1.0 | 2.0 | 0.00 | 0.06 | 0.06 | 74 | 1016.3 |
| 20260505183413 | 62 | 263 | 7.0 | 17.0 | 0.00 | 0.06 | 0.06 | 78 | 1016.2 |
| 20260505182909 | 62 | 282 | 3.0 | 14.0 | 0.00 | 0.06 | 0.06 | 79 | 1016.4 |
| 20260505182406 | 60 | 280 | 6.0 | 9.0 | 0.00 | 0.06 | 0.06 | 80 | 1016.1 |
| 20260505181903 | 60 | 300 | 6.0 | 8.0 | 0.00 | 0.06 | 0.06 | 82 | 1016.2 |
| 20260505181400 | 59 | 291 | 7.0 | 13.0 | 0.00 | 0.06 | 0.06 | 82 | 1016.2 |
| 20260505180857 | 59 | 263 | 7.0 | 9.0 | 0.00 | 0.06 | 0.06 | 82 | 1016.5 |
| 20260505180353 | 59 | 291 | 3.0 | 11.0 | 0.00 | 0.06 | 0.06 | 82 | 1016.4 |
| 20260505175850 | 59 | 282 | 7.0 | 8.0 | 0.00 | 0.06 | 0.06 | 81 | 1016.4 |
| 20260505175346 | 58 | 323 | 3.0 | 5.0 | 0.00 | 0.06 | 0.06 | 83 | 1016.2 |
| 20260505174843 | 58 | 307 | 6.0 | 11.0 | 0.00 | 0.06 | 0.06 | 83 | 1016.3 |
| 20260505174340 | 59 | 309 | 4.0 | 13.0 | 0.00 | 0.06 | 0.06 | 84 | 1016.1 |
| 20260505173836 | 58 | 313 | 2.0 | 6.0 | 0.00 | 0.06 | 0.06 | 84 | 1016.1 |
| 20260505173333 | 58 | 316 | 4.0 | 10.0 | 0.00 | 0.06 | 0.06 | 83 | 1015.9 |
| 20260505172830 | 58 | 282 | 5.0 | 6.0 | 0.00 | 0.06 | 0.06 | 83 | 1016.0 |
| 20260505172328 | 58 | 251 | 3.0 | 5.0 | 0.00 | 0.06 | 0.06 | 84 | 1015.9 |
| 20260505171827 | 59 | 299 | 4.0 | 7.0 | 0.00 | 0.06 | 0.06 | 84 | 1016.0 |
| 20260505171324 | 58 | 324 | 7.0 | 16.0 | 0.00 | 0.06 | 0.06 | 85 | 1016.0 |
| 20260505170821 | 58 | 336 | 3.0 | 5.0 | 0.00 | 0.06 | 0.06 | 85 | 1016.2 |
| 20260505170318 | 58 | 289 | 3.0 | 9.0 | 0.00 | 0.06 | 0.06 | 85 | 1015.8 |
| 20260505165813 | 58 | 280 | 2.0 | 7.0 | 0.00 | 0.06 | 0.06 | 85 | 1015.9 |
| 20260505165309 | 59 | 273 | 2.0 | 7.0 | 0.00 | 0.06 | 0.06 | 86 | 1015.7 |
| 20260505164805 | 57 | 245 | 6.0 | 10.0 | 0.00 | 0.06 | 0.06 | 86 | 1016.3 |
| 20260505164302 | 57 | 312 | 3.0 | 7.0 | 0.00 | 0.06 | 0.06 | 87 | 1015.9 |
| 20260505163800 | 57 | 23 | 0.0 | 1.0 | 0.00 | 0.06 | 0.06 | 88 | 1016.0 |
| 20260505163258 | 57 | 284 | 3.0 | 5.0 | 0.00 | 0.06 | 0.06 | 88 | 1015.9 |
| 20260505162756 | 57 | 10 | 1.0 | 5.0 | 0.00 | 0.06 | 0.06 | 88 | 1015.8 |
| 20260505162252 | 57 | 299 | 5.0 | 9.0 | 0.00 | 0.06 | 0.06 | 88 | 1015.9 |
| 20260505161749 | 57 | 297 | 8.0 | 13.0 | 0.00 | 0.06 | 0.06 | 88 | 1015.9 |
| 20260505161247 | 57 | 251 | 1.0 | 3.0 | 0.00 | 0.06 | 0.06 | 88 | 1015.8 |
| 20260505160744 | 57 | 17 | 1.0 | 8.0 | 0.00 | 0.06 | 0.06 | 88 | 1015.7 |
| 20260505160242 | 56 | 325 | 4.0 | 8.0 | 0.00 | 0.06 | 0.06 | 88 | 1015.8 |
| 20260505153221 | 56 | 337 | 6.0 | 7.0 | 0.00 | 0.06 | 0.06 | 89 | 1015.4 |
| 20260505152718 | 55 | 311 | 3.0 | 6.0 | 0.00 | 0.06 | 0.06 | 89 | 1015.4 |
| 20260505152214 | 55 | 353 | 4.0 | 6.0 | 0.00 | 0.06 | 0.06 | 89 | 1015.4 |
| 20260505151709 | 55 | 352 | 1.0 | 5.0 | 0.00 | 0.06 | 0.06 | 89 | 1015.3 |
| 20260505151207 | 55 | 313 | 2.0 | 5.0 | 0.00 | 0.06 | 0.06 | 90 | 1015.4 |
| 20260505150702 | 54 | 339 | 0.0 | 2.0 | 0.00 | 0.06 | 0.06 | 90 | 1015.4 |
| 20260505150200 | 54 | 356 | 0.0 | 1.0 | 0.00 | 0.06 | 0.06 | 90 | 1015.3 |
| 20260505140633 | 53 | 320 | 2.0 | 5.0 | 0.00 | 0.06 | 0.06 | 90 | 1015.3 |
| 20260505140130 | 53 | 339 | 0.0 | 1.0 | 0.00 | 0.06 | 0.06 | 90 | 1015.2 |